Bookmark and Share
Track history (hours):
 

Callsign AMOUK29 (name unknown)

Last reported at 2014-Apr-20 10:00 UTC. Time now 2014-Apr-20 11:50 UTC.
Position N 54°36' W 005°54'.

Barometer 1016.5 mb
Air temperature 9.5 ° C
Dewpoint 4.6 ° C

NotesDate/timePositionNaut miles runAvg speedWind from/ knotsBaromVisibWave heightAir tempDewpointWater temp
2014-Apr-20 10:00N 54°36' W 005°54'0 0.0 1016.5 9.5 4.6
2014-Apr-20 09:00N 54°36' W 005°54'0 0.0 1016.9 8.8 5.5
2014-Apr-20 07:00N 54°36' W 005°54'0 0.0 1017.5 7.8 6.0
2014-Apr-20 05:00N 54°36' W 005°54'0 0.0 1017.3 7.3 5.2
2014-Apr-20 04:00N 54°36' W 005°54'0 0.0 1017.6 7.4 4.7
2014-Apr-20 03:00N 54°36' W 005°54'0 0.0 1017.8 7.4 4.2
2014-Apr-20 02:00N 54°36' W 005°54'0 0.0 1018.3 7.3 4.1
2014-Apr-19 23:00N 54°36' W 005°54'0 0.0 1018.9 8.0 3.2
2014-Apr-19 22:00N 54°36' W 005°54'0 0.0 1019.0 7.9 2.7
2014-Apr-19 21:00N 54°36' W 005°54'0 0.0 1019.1 8.1 2.9
2014-Apr-19 20:00N 54°36' W 005°54'0 0.0 1019.2 8.7 2.7
2014-Apr-19 19:00N 54°36' W 005°54'0 0.0 1019.1 9.2 2.3
2014-Apr-19 17:00N 54°36' W 005°54'0 0.0 1019.4
2014-Apr-19 16:00N 54°36' W 005°54'0 0.0 1019.1
2014-Apr-19 15:00N 54°36' W 005°54'0 0.0 1019.0
2014-Apr-19 14:00N 54°36' W 005°54'0 0.0 1019.4
2014-Apr-19 13:00N 54°36' W 005°54'0 0.0 1019.7
2014-Apr-19 12:00N 54°36' W 005°54'0 0.0 1019.7
2014-Apr-19 11:00N 54°36' W 005°54'0 0.0 1019.9
2014-Apr-19 10:00N 54°36' W 005°54'0 0.0 1020.0
2014-Apr-19 07:00N 54°36' W 005°54'0 0.0 1020.1
2014-Apr-19 06:00N 54°36' W 005°54'0 0.0 1020.2
2014-Apr-19 05:00N 54°36' W 005°54'0 0.0 1020.1
2014-Apr-19 04:00N 54°36' W 005°54'0 0.0 1020.2
2014-Apr-19 03:00N 54°36' W 005°54'0 0.0 1020.3
2014-Apr-19 02:00N 54°36' W 005°54'0 0.0 1020.7
2014-Apr-19 01:00N 54°36' W 005°54'0 0.0 1020.7
2014-Apr-19 00:00N 54°36' W 005°54'0 0.0 1020.9
2014-Apr-18 23:00N 54°36' W 005°54'0 0.0 1021.3
2014-Apr-18 22:00N 54°36' W 005°54'0 0.0 1021.5
2014-Apr-18 16:00N 54°36' W 005°54'0 0.0 1021.6
2014-Apr-18 15:00N 54°36' W 005°54'0 0.0 1022.0
2014-Apr-18 14:00N 54°36' W 005°54'0 0.0 1022.4
2014-Apr-18 13:00N 54°36' W 005°54'0 0.0 1022.6
2014-Apr-18 12:00N 54°36' W 005°54'0 0.0 1023.0
2014-Apr-18 11:00N 54°36' W 005°54'0 0.0 1023.5
2014-Apr-18 10:00N 54°36' W 005°54'0 0.0 1023.7
2014-Apr-18 09:00N 54°36' W 005°54'0 0.0 1023.5
2014-Apr-18 07:00N 54°36' W 005°54'0 0.0 1023.5
2014-Apr-18 05:00N 54°36' W 005°54'0 0.0 1022.9
2014-Apr-18 04:00N 54°36' W 005°54'0 0.0 1022.4
2014-Apr-18 03:00N 54°36' W 005°54'0 0.0 1022.5
2014-Apr-18 02:00N 54°36' W 005°54'0 0.0 1022.7
2014-Apr-18 01:00N 54°36' W 005°54'0 0.0 1022.7
2014-Apr-18 00:00N 54°36' W 005°54'0 0.0 1022.6
2014-Apr-17 23:00N 54°36' W 005°54'0 0.0 1022.3
2014-Apr-17 22:00N 54°36' W 005°54'0 0.0 1022.5
2014-Apr-17 21:00N 54°36' W 005°54'0 0.0 1022.0
2014-Apr-17 18:00N 54°36' W 005°54'0 0.0 1020.8 10.6 2.3
2014-Apr-17 14:00N 54°36' W 005°54'0 0.0 1018.9
2014-Apr-17 13:00N 54°36' W 005°54'0 0.0 1018.5
2014-Apr-17 12:00N 54°36' W 005°54'0 0.0 1018.1
2014-Apr-17 11:00N 54°36' W 005°54'0 0.0 1018.0
2014-Apr-17 10:00N 54°36' W 005°54'0 0.0 1018.1
2014-Apr-17 09:00N 54°36' W 005°54'0 0.0 1018.2
2014-Apr-17 08:00N 54°36' W 005°54'0 0.0 1018.7
2014-Apr-17 05:00N 54°36' W 005°54'0 0.0 1018.0
2014-Apr-17 04:00N 54°36' W 005°54'0 0.0 1017.4
2014-Apr-17 03:00N 54°36' W 005°54'0 0.0 1017.5
2014-Apr-17 02:00N 54°36' W 005°54'0 0.0 1017.8
2014-Apr-17 01:00N 54°36' W 005°54'0 0.0 1017.9
2014-Apr-17 00:00N 54°36' W 005°54'0 0.0 1017.9
2014-Apr-16 23:00N 54°36' W 005°54'0 0.0 1017.9
2014-Apr-16 22:00N 54°36' W 005°54'0 0.0 1017.9
2014-Apr-16 21:00N 54°36' W 005°54'0 0.0 1018.2
2014-Apr-16 15:00N 54°36' W 005°54'15 7.6 1020.6
2014-Apr-16 13:00N 54°42' W 005°30'1212.5 1021.7
2014-Apr-16 12:00N 54°30' W 005°24'7 6.9 1022.8
2014-Apr-16 11:00N 54°24' W 005°18'1413.9 1023.6
2014-Apr-16 10:00N 54°12' W 005°30'7 7.0 1023.7
2014-Apr-16 09:00N 54°12' W 005°42'0 0.0 1023.4
2014-Apr-16 08:00N 54°12' W 005°42'7 7.0 1023.9
2014-Apr-16 07:00N 54°06' W 005°48'6 6.0 1024.8
2014-Apr-16 06:00N 54°00' W 005°48'6 6.0 1024.9
2014-Apr-16 05:00N 53°54' W 005°48'4 3.5 1025.0
2014-Apr-16 04:00N 53°54' W 005°42'0 0.0 1025.5
2014-Apr-16 03:00N 53°54' W 005°42'0 0.0 1025.4
2014-Apr-16 02:00N 53°54' W 005°42'4 3.5 1026.0
2014-Apr-16 01:00N 53°54' W 005°48'0 0.0 1025.5
2014-Apr-16 00:00N 53°54' W 005°48'6 6.0 1025.8
2014-Apr-15 23:00N 54°00' W 005°48'0 0.0 1026.0
2014-Apr-15 22:00N 54°00' W 005°48'0 0.0 1025.9
2014-Apr-15 21:00N 54°00' W 005°48'6 6.0 1026.0
2014-Apr-15 20:00N 54°06' W 005°48'4 3.5 1025.6
2014-Apr-15 19:00N 54°06' W 005°42'4 1.8 1025.3
2014-Apr-15 17:00N 54°06' W 005°48'1312.5 1026.6
2014-Apr-15 16:00N 53°54' W 005°54'0 0.0 1026.9
2014-Apr-15 15:00N 53°54' W 005°54'4 3.5 1027.3
2014-Apr-15 14:00N 53°54' W 006°00'4 3.5 1027.5
2014-Apr-15 13:00N 53°54' W 006°06'7 7.0 1028.0
2014-Apr-15 12:00N 53°48' W 006°00'0 0.0 1028.3
2014-Apr-15 11:00N 53°48' W 006°00'6 6.0 1028.5
2014-Apr-15 10:00N 53°42' W 006°00'0 0.0 1028.6
2014-Apr-15 09:00N 53°42' W 006°00'0 0.0 1028.4
2014-Apr-15 08:00N 53°42' W 006°00'7 7.0 1028.8
2014-Apr-15 07:00N 53°36' W 005°54'0 0.0 1028.7
2014-Apr-15 06:00N 53°36' W 005°54'0 0.0 1028.4
2014-Apr-15 05:00N 53°36' W 005°54'0 0.0 1028.4
2014-Apr-15 04:00N 53°36' W 005°54'6 6.0 1028.4
2014-Apr-15 03:00N 53°42' W 005°54'0 0.0 1028.2
2014-Apr-15 02:00N 53°42' W 005°54'6 6.0 1028.4
2014-Apr-15 01:00N 53°48' W 005°54'6 6.0 1028.5
2014-Apr-15 00:00N 53°54' W 005°54'6 6.0 1028.6
2014-Apr-14 23:00N 54°00' W 005°54'0 0.0 1028.6
2014-Apr-14 22:00N 54°00' W 005°54'6 6.0 1028.6
2014-Apr-14 21:00N 54°06' W 005°54'0 0.0 1028.8
2014-Apr-14 20:00N 54°06' W 005°54'0 0.0 1028.7
2014-Apr-14 19:00N 54°06' W 005°54'0 0.0 1028.6
2014-Apr-14 18:00N 54°06' W 005°54'6 6.0 1028.8
2014-Apr-14 17:00N 54°00' W 005°54'1312.5 1028.4
2014-Apr-14 16:00N 53°48' W 005°48'0 0.0 1028.3
2014-Apr-14 15:00N 53°48' W 005°48'0 0.0 1028.3
2014-Apr-14 14:00N 53°48' W 005°48'6 6.0 1028.1
2014-Apr-14 13:00N 53°42' W 005°48'0 0.0 1028.2
2014-Apr-14 12:00N 53°42' W 005°48'6 6.0 1028.2
2014-Apr-14 11:00N 53°48' W 005°48'7 7.0 1027.5
2014-Apr-14 10:00N 53°54' W 005°42'6 6.0 1027.4
2014-Apr-14 09:00N 54°00' W 005°42'9 9.3 1026.8
2014-Apr-14 08:00N 54°06' W 005°30'7 7.0 1025.7
2014-Apr-14 07:00N 54°06' W 005°18'0 0.0 1025.5
2014-Apr-14 06:00N 54°06' W 005°18'0 0.0 1025.0
2014-Apr-14 05:00N 54°06' W 005°18'4 3.5 1024.6
2014-Apr-14 04:00N 54°06' W 005°24'4 3.5 1024.3
2014-Apr-14 03:00N 54°06' W 005°30'7 7.0 1023.8
2014-Apr-14 02:00N 54°06' W 005°42'0 0.0 1023.7
2014-Apr-14 01:00N 54°06' W 005°42'0 0.0 1023.3
2014-Apr-14 00:00N 54°06' W 005°42'4 3.5 1022.6
2014-Apr-13 23:00N 54°06' W 005°48'0 0.0 1022.2
2014-Apr-13 22:00N 54°06' W 005°48'0 0.0 1022.7
2014-Apr-13 21:00N 54°06' W 005°48'6 6.0 1022.2
2014-Apr-13 20:00N 54°00' W 005°48'6 6.0 1021.0
2014-Apr-13 19:00N 53°54' W 005°48'6 6.0 1021.5
2014-Apr-13 18:00N 53°48' W 005°48'7 7.0 1021.3
2014-Apr-13 17:00N 53°42' W 005°42'6 6.0 1020.7
2014-Apr-13 16:00N 53°36' W 005°42'0 0.0 1020.9
2014-Apr-13 15:00N 53°36' W 005°42'6 3.0 1021.3
2014-Apr-13 13:00N 53°30' W 005°42'4 3.6 1022.8
2014-Apr-13 12:00N 53°30' W 005°48'0 0.0 1023.2
2014-Apr-13 11:00N 53°30' W 005°48'6 6.0 1023.6
2014-Apr-13 10:00N 53°24' W 005°48'0 0.0 1023.7
2014-Apr-13 09:00N 53°24' W 005°48'0 0.0 1023.7
2014-Apr-13 08:00N 53°24' W 005°48'6 6.0 1023.3
2014-Apr-13 07:00N 53°30' W 005°48'0 0.0 1023.0
2014-Apr-13 06:00N 53°30' W 005°48'7 7.0 1022.8
2014-Apr-13 05:00N 53°36' W 005°54'6 3.0 1022.2
2014-Apr-13 03:00N 53°42' W 005°54'7 7.0 1021.1
2014-Apr-13 02:00N 53°48' W 006°00'0 0.0 1020.4
2014-Apr-13 01:00N 53°48' W 006°00'6 6.0 1020.3
2014-Apr-13 00:00N 53°54' W 006°00'0 0.0 1020.0
2014-Apr-12 23:00N 53°54' W 006°00'6 6.0 1019.8
2014-Apr-12 22:00N 54°00' W 006°00'6 6.0 1019.6
2014-Apr-12 21:00N 53°54' W 006°00'6 6.0 1019.6
2014-Apr-12 20:00N 53°48' W 006°00'7 7.0 1018.8
2014-Apr-12 19:00N 53°42' W 005°54'6 6.0 1018.0
2014-Apr-12 18:00N 53°36' W 005°54'6 6.0 1017.5
2014-Apr-12 17:00N 53°30' W 005°54'6 6.0 1017.1
2014-Apr-12 16:00N 53°24' W 005°54'1212.0 1016.4
2014-Apr-12 15:00N 53°12' W 005°54'0 0.0 1016.5
2014-Apr-12 14:00N 53°12' W 005°54'4 3.6 1016.6
2014-Apr-12 13:00N 53°12' W 006°00'7 7.0 1016.0
2014-Apr-12 12:00N 53°18' W 005°54'7 7.2 1015.3
2014-Apr-12 11:00N 53°18' W 005°42'7 7.0 1015.4
2014-Apr-12 10:00N 53°12' W 005°36'1110.8 1015.8
2014-Apr-12 09:00N 53°12' W 005°18'4 3.6 1015.4
2014-Apr-12 08:00N 53°12' W 005°12'6 6.0 1015.3
2014-Apr-12 07:00N 53°18' W 005°12'7 7.0 1016.0
2014-Apr-12 06:00N 53°12' W 005°18'4 3.6 1016.4
2014-Apr-12 05:00N 53°12' W 005°24'7 7.0 1017.1
2014-Apr-12 04:00N 53°06' W 005°30'7 7.0 1017.3
2014-Apr-12 03:00N 53°00' W 005°36'11 5.4 1018.3
2014-Apr-12 01:00N 53°00' W 005°54'0 0.0 1019.4
2014-Apr-12 00:00N 53°00' W 005°54'0 0.0 1020.2
2014-Apr-11 23:00N 53°00' W 005°54'4 1.2 1020.5
2014-Apr-11 20:00N 53°00' W 006°00'0 0.0 1021.8
2014-Apr-11 19:00N 53°00' W 006°00'4 3.6 1021.8
2014-Apr-11 18:00N 53°00' W 005°54'7 7.0 1022.1
2014-Apr-11 17:00N 52°54' W 005°48'6 6.0 1022.5
2014-Apr-11 16:00N 52°48' W 005°48'6 6.0 1023.4
2014-Apr-11 15:00N 52°42' W 005°48'6 6.0 1024.3
2014-Apr-11 14:00N 52°36' W 005°48'6 6.0 1024.5
2014-Apr-11 13:00N 52°30' W 005°48'7 7.0 1025.0
2014-Apr-11 12:00N 52°24' W 005°54'7 7.3 1025.3
2014-Apr-11 11:00N 52°24' W 005°42'1111.0 1025.2
2014-Apr-11 10:00N 52°24' W 005°24'1312.5 1025.1
2014-Apr-11 09:00N 52°30' W 005°06'1212.5 1024.5
2014-Apr-11 08:00N 52°36' W 004°48'1110.9 1024.1
2014-Apr-11 07:00N 52°36' W 004°30'6 6.0 1023.9
2014-Apr-11 06:00N 52°42' W 004°30'0 0.0 1023.2
2014-Apr-11 05:00N 52°42' W 004°30'4 3.6 1023.1
2014-Apr-11 04:00N 52°42' W 004°36'0 0.0 1022.5
2014-Apr-11 03:00N 52°42' W 004°36'4 3.6 1022.5
2014-Apr-11 02:00N 52°42' W 004°42'7 7.0 1022.5
2014-Apr-11 01:00N 52°48' W 004°48'1312.5 1023.2
2014-Apr-11 00:00N 53°00' W 004°54'1212.0 1022.8
2014-Apr-10 23:00N 53°12' W 004°54'7 7.0 1022.8
2014-Apr-10 22:00N 53°18' W 005°00'1212.0 1022.3
2014-Apr-10 21:00N 53°30' W 005°00'7 7.0 1022.1
2014-Apr-10 20:00N 53°36' W 005°06'1312.5 1021.5
2014-Apr-10 19:00N 53°48' W 005°12'1312.5 1020.8
2014-Apr-10 18:00N 54°00' W 005°18'1212.0 1020.6
2014-Apr-10 17:00N 54°12' W 005°18'4 3.5 1020.1
2014-Apr-10 16:00N 54°12' W 005°24'0 0.0 1020.4
2014-Apr-10 15:00N 54°12' W 005°24'7 6.9 1020.1
2014-Apr-10 14:00N 54°18' W 005°18'6 6.0 1020.7
2014-Apr-10 13:00N 54°24' W 005°18'7 6.9 1021.1
2014-Apr-10 12:00N 54°30' W 005°24'1212.5 1021.2
2014-Apr-10 11:00N 54°42' W 005°30'7 6.9 1021.1
2014-Apr-10 10:00N 54°42' W 005°42'   1020.8

Dump ship's entire track history

sailing weather and tide predictions

Ship Status Report: callsign AMOUK29